• MPC Preparation (Info)

  • MPEC 2001-Q28 : 2001 QE34

    The following Minor Planet Electronic Circular may be linked-to from your own Web pages, but must not otherwise be redistributed electronically.

    A form allowing access to any MPEC is at the bottom of this page.


    Read MPEC 2001-Q27 Read MPEC 2001-Q29


    M.P.E.C. 2001-Q28                                Issued 2001 Aug. 20, 19:03 UT
    
         The Minor Planet Electronic Circulars contain information on unusual
             minor planets and routine data on comets.  They are published
       on behalf of Commission 20 of the International Astronomical Union by the
              Minor Planet Center, Smithsonian Astrophysical Observatory,
                              Cambridge, MA 02138, U.S.A.
    
                 Prepared using the Tamkin Foundation Computer Network
    
                                  MPC@CFA.HARVARD.EDU
              URL http://cfa-www.harvard.edu/iau/mpc.html  ISSN 1523-6714
    
                                       2001 QE34
    
    Observations:
         K01Q34E* C2001 08 18.39248 01 03 52.23 +23 41 46.0          18.8        704
         K01Q34E  C2001 08 18.41084 01 03 46.83 +23 41 20.8          18.9        704
         K01Q34E  C2001 08 18.42341 01 03 43.03 +23 41 05.3          18.9        704
         K01Q34E  C2001 08 18.88574 01 01 31.09 +23 30 14.5                      557
         K01Q34E  C2001 08 18.88668 01 01 30.82 +23 30 14.6                      557
         K01Q34E  C2001 08 18.88762 01 01 30.52 +23 30 12.2                      557
         K01Q34E  C2001 08 18.93885 01 01 15.85 +23 29 03.5          18.5 V      151
         K01Q34E  C2001 08 18.93988 01 01 15.59 +23 29 02.9          18.6 V      151
         K01Q34E  C2001 08 18.94295 01 01 14.70 +23 28 57.3          17.6 V      151
         K01Q34E  C2001 08 18.94389 01 01 14.48 +23 28 56.4          17.7 V      151
         K01Q34E  C2001 08 18.94861 01 01 13.09 +23 28 50.3          18.5 V      151
         K01Q34E  C2001 08 19.08957 01 00 31.83 +23 25 36.9          17.8 R      046
         K01Q34E  C2001 08 19.09235 01 00 30.95 +23 25 33.3                      046
         K01Q34E  C2001 08 19.09308 01 00 30.78 +23 25 31.9          17.7 R      046
         K01Q34E  C2001 08 19.39323 00 59 05.57 +23 18 37.4          18.5        704
         K01Q34E  C2001 08 19.39539 00 59 04.97 +23 18 33.9          18.0        704
         K01Q34E  C2001 08 19.40608 00 59 01.82 +23 18 19.5          18.8        704
         K01Q34E  C2001 08 19.40950 00 59 00.77 +23 18 15.7          19.1        704
         K01Q34E  C2001 08 19.41892 00 58 58.03 +23 18 01.3          18.3        704
         K01Q34E  C2001 08 19.42313 00 58 56.79 +23 17 56.2          18.8        704
         K01Q34E  C2001 08 19.43173 00 58 54.28 +23 17 43.4          18.6        704
         K01Q34E  C2001 08 19.43592 00 58 53.04 +23 17 36.0          18.8        704
         K01Q34E  C2001 08 19.44450 00 58 50.55 +23 17 25.2          18.6        704
         K01Q34E  C2001 08 19.44922 00 58 49.16 +23 17 18.8          19.1        704
         K01Q34E  C2001 08 20.13124 00 55 36.75 +23 01 06.9                      946
         K01Q34E  C2001 08 20.15042 00 55 31.09 +23 00 39.9                      946
         K01Q34E  C2001 08 20.15273 00 55 30.48 +23 00 36.8                      946
         K01Q34E  C2001 08 20.29130 00 54 52.53 +22 57 15.0          18.6 R      918
         K01Q34E  C2001 08 20.29451 00 54 51.54 +22 57 10.0          18.9 R      918
         K01Q34E  C2001 08 20.29742 00 54 50.80 +22 57 06.7          18.6 R      918
         K01Q34E  C2001 08 20.30065 00 54 49.85 +22 57 01.7          18.7 R      918
         K01Q34E 1C2001 08 20.33513 00 54 40.27 +22 56 10.3                      658
         K01Q34E 1C2001 08 20.33682 00 54 39.84 +22 56 08.3                      658
         K01Q34E 1C2001 08 20.33840 00 54 39.36 +22 56 05.6                      658
    
    Observer details:
    046 Klet.  Observer M. Kocer.  0.57-m f/5.2 reflector + CCD.
    151 Eschenberg Observatory, Winterthur.  Observer M. Griesser.  0.40-m f/5.8
        Hypergraph.
    557 Ondrejov.  Observers P. Pravec, P. Kusnirak.  0.65-m f/3.6 reflector + CCD.
    658 National Research Council of Canada.  Observer D. D. Balam.  1.82-m
        Plaskett reflector + CCD.
    704 Lincoln Laboratory ETS, New Mexico.  Observers M. Blythe, F. Shelly,
        M. Bezpalko, R. Huber, L. Manguso, S. Adams.  Measurers J. Stuart,
        R. Sayer, J. B. Evans, H. Viggh.  1.0-m f/2.15 reflector + CCD.
    918 Badlands Observatory, Quinn.  Observer R. Dyvig.  0.66-m f/4.8 reflector
        + CCD.
    946 Ametlla de Mar.  Observer J. Nomen.  0.40-m f/2.0 Schmidt + CCD.
    
    Orbital elements:
    2001 QE34
    Epoch 2001 Aug. 19.0 TT = JDT 2452140.5                 Spahr
    M  20.26479              (2000.0)            P               Q
    n   0.30645329     Peri.  312.17683     -0.58509594     +0.80554925
    a   2.1788459      Node   281.77844     -0.71302943     -0.56596194
    e   0.7384889      Incl.    5.48416     -0.38633117     -0.17543517
    P   3.22           H   18.1           G   0.15
    From 34 observations 2001 Aug. 18-20.
    
    Ephemeris:
    2001 QE34                a,e,i = 2.18, 0.74, 5                   q = 0.5698
    Date    TT    R. A. (2000) Decl.     Delta      r     Elong.  Phase     V
    2001 08 09    01 51.93   +26 45.1    0.344    1.129   100.6    62.0    18.3
    2001 08 19    01 00.96   +23 27.9    0.380    1.253   121.5    43.5    18.2
    2001 08 29    00 17.28   +19 12.9    0.432    1.373   141.0    27.5    18.2
    2001 09 08    23 42.81   +14 43.7    0.507    1.489   157.6    14.9    18.3
    2001 09 18    23 18.04   +10 41.2    0.607    1.601   166.0     8.7    18.6
    2001 09 28    23 02.02   +07 26.2    0.731    1.708   160.3    11.4    19.3
    2001 10 08    22 53.10   +05 02.2    0.876    1.811   149.8    16.1    20.0
    2001 10 18    22 49.59   +03 22.7    1.040    1.910   139.4    19.9    20.6
    2001 10 28    22 50.15   +02 20.0    1.219    2.004   129.6    22.5    21.1
    2001 11 07    22 53.74   +01 46.7    1.411    2.096   120.5    24.1    21.6
    2001 11 17    22 59.58   +01 36.4    1.613    2.183   111.8    24.9    22.0
    
    Timothy B. Spahr             (C) Copyright 2001 MPC           M.P.E.C. 2001-Q28
    

    Read MPEC 2001-Q27 Read MPEC 2001-Q29


    MPEC number:

    Enter an MPEC number in one of the following forms:

    • 1997-B01 (the full form)
    • J97B01 (the packed version of the full form)
    • B01 (the abbreviated form)